EHI
0 0 0 0 0 0 0 0 0 0 0 0 0 0 0 0 0 0 0 0 0 0 1 0 0 0 0 1 2 1 0 2 3 4 3 3 3 2 2 2 1 0 0 0
0 0 0 0 0 0 0 0 0 0 0 0 0 0 0 0 0 0 0 0 0 1 1 1 0 0 0 1 1 1 1 3 4 4 3 3 2 1 1 1 0 0 0 0
0 0 0 0 0 0 0 0 0 0 0 0 0 0 0 0 0 0 0 0 0 1 1 1 0 0 0 0 0 0 1 3 4 3 2 1 1 0 0 0 0 0 0 0
0 0 0 0 0 0 0 0 0 0 0 0 0 0 0 0 0 0 0 0 0 0 0 0 0 0 0 0 0 0 1 1 1 1 1 0 0 0 0 0 0 0 0 0
0 0 0 0 0 0 0 0 0 0 0 0 0 0 0 0 0 0 0 0 0 0 0 0 0 0 0 0 0 0 1 0 0 0 0 0 0 0 0 0 0 0 0 0
0 0 0 0 0 0 0 0 0 0 0 0 0 0 0 0 0 0 0 0 0 0 0 0 0 0 0 0 0 0 0 0 0 0 0 0 0 0 0 0 0 0 0 0
0 0 0 0 0 0 0 0 0 0 0 0 0 0 0 0 0 0 0 0 0 0 0 0 0 0 0 0 0 0 0 0 0 0 0 0 0 0 0 0 0 0 0 0
0 0 0 0 0 0 0 0 0 0 0 0 0 0 0 0 0 0 0 0 0 0 0 0 0 0 0 0 0 0 0 0 0 0 0 0 0 0 0 0 1 1 1 1
0 0 0 0 0 0 0 0 0 0 0 0 0 0 0 0 0 0 0 0 0 0 0 0 0 0 0 0 0 0 0 0 0 0 0 0 0 0 0 0 1 1 2 2
0 0 0 0 0 0 0 0 0 0 0 0 0 0 0 0 0 0 0 0 0 0 0 0 0 0 0 0 0 0 0 0 0 0 0 0 0 0 0 0 0 1 1 1
0 0 0 0 0 0 0 0 0 0 0 0 0 0 0 0 0 0 0 0 0 0 0 0 0 0 0 0 0 0 0 0 0 0 0 0 0 0 0 0 0 0 0 0
0 0 0 0 0 0 0 0 0 0 0 0 0 0 0 0 0 0 0 0 0 0 0 0 0 0 0 0 0 0 0 0 0 0 0 0 0 0 0 0 0 0 0 0
0 0 0 0 0 0 0 0 0 0 0 0 0 0 0 0 0 0 0 0 0 0 0 0 0 0 0 0 0 0 0 0 0 0 0 0 0 0 0 0 0 0 0 0
0 0 0 0 0 0 0 0 0 0 0 0 0 0 0 0 0 0 0 0 0 0 0 0 0 0 0 0 0 0 0 0 0 0 0 0 0 0 0 0 0 0 0 0
0 0 0 0 0 0 0 0 0 0 0 0 0 0 0 0 0 0 0 0 0 0 0 0 0 0 0 0 0 0 0 0 0 0 0 0 0 0 0 0 0 0 0 0
0 0 0 0 0 0 0 0 0 0 0 0 0 0 0 0 0 0 0 0 0 0 0 0 0 0 0 0 0 0 0 0 0 0 0 0 0 0 0 0 0 0 0 0
0 0 0 0 0 0 0 0 0 0 0 0 0 0 0 0 0 0 0 0 0 0 0 0 0 0 0 0 0 0 0 0 0 0 0 0 0 0 0 0 0 0 0 0
0 0 0 0 0 0 0 0 0 0 0 0 0 0 0 0 0 0 0 0 0 0 0 0 0 0 0 0 0 0 0 0 0 0 0 0 0 0 0 0 0 0 0 0
0 0 0 0 0 0 0 0 0 0 0 0 0 0 0 0 0 0 0 0 0 0 0 0 0 0 0 0 0 0 0 0 0 0 0 0 0 0 0 0 0 0 0 0
0 0 0 0 0 0 0 0 0 0 0 0 0 0 0 0 0 0 0 0 0 0 0 0 0 0 0 0 0 0 0 0 0 0 0 0 0 0 0 0 0 0 0 0
0 0 0 0 0 0 0 0 0 0 0 0 0 0 0 0 0 0 0 0 0 0 0 0 0 0 0 0 0 0 0 0 0 0 0 0 0 0 0 0 0 0 0 0
0 0 0 0 0 0 0 0 0 0 0 0 0 0 0 0 0 0 0 0 0 0 0 0 0 0 0 0 0 0 0 0 0 0 0 0 0 0 0 0 0 0 0 0
0 0 0 0 0 0 0 0 0 0 0 0 0 0 0 0 0 0 0 0 0 0 0 0 0 0 0 0 0 0 0 0 0 0 0 0 0 0 0 0 0 0 0 0
0 0 0 0 0 0 0 0 0 0 0 0 0 0 0 0 0 0 0 0 0 0 0 0 0 0 0 0 0 0 0 0 0 0 0 0 0 0 0 0 0 0 0 0
0 0 0 0 0 0 0 0 0 0 0 0 0 0 0 0 0 0 0 0 0 0 0 0 0 0 0 0 0 0 0 0 0 0 0 0 0 0 0 0 0 0 0 0
0 0 0 0 0 0 0 0 0 0 0 0 0 0 0 0 0 0 0 0 0 0 0 0 0 0 0 0 0 0 0 0 0 0 0 0 0 0 0 0 0 0 0 0
Wind_Speed
4 3 5 7 7 5 4 5 4 2 2 4 8 8 7 7 7 7 6 6 6 6 5 4 3 3 3 3 3 2 2 2 1 1 1 0 0 1 1 1 2 1 1 1
3 6 5 4 5 6 6 6 5 1 1 3 5 8 7 8 9 8 7 7 7 6 6 5 4 3 3 3 3 2 2 2 1 1 1 0 0 0 0 1 2 2 2 2
6 1 4 6 5 5 6 6 4 2 2 4 4 7 8 7 7 7 7 6 6 6 6 5 4 4 3 2 2 2 2 2 1 1 1 1 1 0 1 1 1 1 1 1
4 3 2 4 5 4 5 3 3 2 1 3 3 5 5 5 6 7 6 5 5 5 5 5 5 4 3 2 2 2 2 2 1 1 1 1 1 0 1 1 1 1 1 1
3 3 4 4 4 4 1 1 2 2 3 3 4 4 6 5 6 7 6 5 4 4 5 5 5 4 4 3 2 1 2 2 1 1 1 1 1 0 1 1 1 1 0 1
1 1 1 2 1 2 1 1 2 2 1 5 7 7 6 5 7 6 6 4 4 4 4 5 4 4 3 3 2 1 1 1 1 0 1 1 1 0 0 1 2 1 1 1
2 3 1 0 2 2 2 2 1 1 4 6 4 5 6 2 2 5 6 5 4 4 4 5 5 4 3 3 2 1 1 1 0 0 1 0 0 0 1 1 1 2 2 1
4 3 5 4 3 4 5 4 4 4 4 2 3 6 3 2 4 4 4 5 4 4 4 4 4 4 3 3 2 2 1 0 1 0 0 1 0 0 1 1 1 1 2 2
3 2 2 2 1 1 4 4 1 0 1 2 5 3 1 3 4 3 4 4 3 3 3 3 3 3 3 3 2 1 1 0 0 1 1 1 1 1 1 1 1 1 1 2
0 1 1 1 0 2 2 2 2 2 3 4 4 4 3 4 4 4 4 3 3 3 3 3 2 2 2 2 2 1 1 1 0 0 1 1 1 1 1 1 1 2 2 1
0 2 2 2 4 5 4 3 3 3 3 3 3 2 2 2 4 5 4 4 3 3 3 2 2 2 2 2 2 1 1 0 0 0 1 1 1 1 1 1 1 2 2 2
2 2 2 3 1 1 2 4 4 4 4 3 2 3 2 3 3 4 4 3 3 3 3 2 2 2 2 2 1 1 1 1 0 0 0 1 1 0 0 1 1 1 2 2
2 3 2 0 1 1 2 3 3 1 1 3 3 4 1 3 3 3 3 2 2 3 2 2 2 2 2 1 1 1 1 1 1 1 1 1 1 1 1 1 1 2 2 2
1 2 4 4 2 4 3 4 4 4 4 4 6 4 3 1 1 1 1 2 2 2 2 1 1 1 1 1 1 1 1 1 1 1 1 1 1 1 1 1 1 2 2 2
1 2 2 3 3 1 3 5 6 7 7 6 5 5 5 3 2 1 1 1 2 2 1 1 0 0 1 1 1 1 1 1 1 1 1 1 1 1 1 2 2 2 2 2
1 1 1 3 2 2 4 6 7 8 8 8 7 8 5 2 1 1 1 1 1 2 2 1 1 0 0 0 0 1 1 1 1 1 1 1 1 1 1 2 2 2 2 2
2 2 2 2 1 2 6 7 8 6 6 6 9 8 2 1 2 2 2 2 1 1 1 1 1 1 0 0 0 1 0 0 0 1 1 1 1 1 1 1 2 2 2 2
4 3 2 1 0 6 5 2 5 6 5 5 4 3 2 3 3 2 1 1 1 1 1 1 1 1 1 0 0 0 0 0 1 1 0 1 1 1 1 1 1 2 2 2
2 4 2 2 3 6 2 1 2 3 4 4 6 5 3 2 2 1 0 1 1 1 1 1 1 1 1 1 1 1 0 1 1 1 1 1 0 1 1 2 2 1 1 2
1 2 2 3 4 5 3 1 2 2 4 2 4 5 2 1 1 3 1 0 0 0 1 1 1 1 1 1 1 1 1 1 1 1 1 1 0 1 1 1 2 2 1 2
4 3 5 5 5 5 1 1 3 3 5 2 1 3 3 3 3 1 1 1 1 1 1 1 1 1 1 0 1 1 1 2 1 0 0 1 1 1 1 1 1 1 2 2
6 5 6 4 5 7 1 3 4 3 1 1 1 1 2 1 0 0 1 1 0 1 1 1 1 0 1 1 1 1 2 2 0 0 1 1 1 1 1 1 1 1 2 2
5 5 4 6 6 2 4 3 2 0 1 1 1 0 1 1 1 1 1 1 1 0 0 1 1 1 1 1 1 2 2 1 1 1 1 2 2 1 1 1 1 1 1 2
3 2 2 3 4 3 3 2 1 1 1 1 1 0 1 1 2 2 2 1 1 1 0 0 1 1 2 1 1 2 2 1 1 1 2 2 1 1 1 2 2 2 2 2
3 4 3 4 4 2 3 3 2 0 0 1 1 0 1 2 2 2 2 2 1 1 1 1 1 2 2 2 2 2 1 1 1 1 2 2 2 2 1 2 2 2 3 3
3 5 5 5 3 3 2 1 1 1 1 1 1 1 1 1 2 2 2 1 1 1 1 1 1 2 3 2 2 2 1 1 2 2 2 2 2 1 1 1 2 4 4 6
Wind_Direction
188 194 207 209 217 248 267 251 244 224 181 219 232 236 225 208 212 207 200 191 187 183 166 158 156 144 126 108 98 96 105 110 104 102 111 113 35 0 13 27 24 23 11 1
182 223 225 221 223 244 255 259 256 247 188 234 247 252 237 220 215 205 200 196 187 179 168 165 156 144 134 123 115 113 110 113 106 107 138 156 150 146 77 25 13 23 14 1
204 195 214 223 229 231 244 247 255 253 291 244 260 264 227 216 215 207 203 198 186 180 174 167 156 144 130 122 128 129 122 112 108 110 111 94 79 65 49 17 353 350 355 357
229 229 225 214 225 227 240 249 263 243 249 248 200 268 236 194 202 205 202 193 182 175 167 163 159 148 139 132 124 119 114 103 103 118 123 122 105 346 317 300 299 303 326 357
217 186 207 219 228 225 219 314 275 240 244 274 224 238 262 189 204 202 195 191 176 169 160 157 151 140 127 124 115 109 118 101 84 93 132 134 81 11 339 335 327 290 268 2
274 335 282 239 243 212 151 283 307 266 225 251 216 208 260 201 201 190 184 173 163 154 148 140 127 122 119 113 105 97 100 103 98 87 96 91 102 47 330 337 335 306 287 263
206 207 191 109 134 168 196 148 121 219 217 239 188 203 244 201 140 157 162 153 144 134 128 133 133 135 136 131 125 117 94 54 85 82 69 59 82 234 241 262 295 310 288 280
189 207 183 193 191 185 203 191 182 208 228 245 188 221 235 107 90 98 115 127 126 134 130 129 141 147 146 140 132 125 121 327 346 29 340 291 284 235 291 309 305 285 278 277
199 186 118 163 212 199 184 214 234 199 281 259 232 221 178 113 118 119 113 117 126 138 128 123 126 141 139 139 136 138 160 196 351 1 328 292 317 347 335 339 328 301 293 310
237 161 180 130 180 279 263 159 140 181 222 249 244 215 215 182 182 156 146 148 143 119 109 113 120 127 132 136 139 136 140 168 198 240 283 321 326 342 330 323 341 325 319 332
221 151 164 173 201 193 183 188 193 206 232 223 252 252 11 128 141 147 147 143 139 127 120 107 98 106 109 110 114 110 123 100 357 323 337 339 303 329 342 323 333 336 344 349
202 158 202 203 147 356 225 206 183 190 227 218 243 270 17 64 87 111 124 127 122 113 101 90 85 94 99 105 103 95 81 50 356 338 350 319 288 318 341 328 344 340 337 341
155 151 149 229 265 265 250 237 218 207 212 222 222 248 80 84 79 88 108 110 103 107 101 85 80 88 90 91 88 75 62 33 9 8 353 338 323 357 344 335 336 332 335 337
104 194 203 214 201 167 204 223 207 191 210 231 230 239 242 197 142 106 102 114 115 128 127 112 94 84 82 80 83 62 40 38 8 6 6 356 347 360 350 343 334 324 323 327
130 220 238 266 292 220 221 218 204 213 224 225 249 257 254 234 211 199 161 145 139 148 141 129 109 72 87 65 53 52 32 28 10 6 8 344 349 9 11 358 342 331 326 328
144 221 263 258 230 244 261 244 221 225 237 247 267 273 264 245 194 215 185 178 193 183 174 175 173 149 29 50 32 45 22 16 6 341 342 355 2 18 14 359 354 351 348 339
160 164 192 245 228 296 258 230 213 218 222 216 235 249 268 272 234 228 231 208 204 189 182 186 189 201 223 303 285 203 213 353 332 317 339 343 346 5 1 346 357 351 342 337
157 166 190 244 149 237 240 201 194 207 230 221 237 266 264 258 263 256 205 181 209 192 195 203 191 179 171 185 271 181 161 225 252 254 285 312 342 355 352 348 344 333 332 336
169 163 188 196 239 262 243 213 165 190 255 227 230 257 285 335 328 282 168 151 204 197 191 187 173 163 157 177 201 157 210 228 234 241 252 301 359 352 345 331 322 322 329 328
137 157 186 209 229 243 231 136 122 108 268 258 214 237 240 85 250 258 354 20 301 173 124 125 119 117 148 186 148 172 228 230 239 246 258 282 292 291 296 300 309 317 315 307
164 188 207 219 236 256 235 165 122 168 244 302 218 224 195 205 230 254 28 12 356 91 103 108 115 142 202 195 144 223 238 242 252 279 298 287 278 268 269 287 300 305 306 306
177 182 194 196 221 241 165 138 180 212 327 358 346 215 191 224 293 7 3 337 38 87 105 116 137 207 244 199 190 238 250 249 229 241 271 269 261 268 282 274 290 294 295 297
197 194 186 196 213 201 162 178 205 235 304 323 333 320 145 185 257 277 288 290 274 216 163 135 158 235 265 237 203 237 263 252 205 230 257 267 272 268 258 252 261 279 286 285
210 191 200 246 248 217 200 211 243 264 283 344 356 107 152 219 246 263 268 270 257 256 185 157 181 249 273 272 249 246 260 244 207 235 259 269 261 273 272 273 264 262 266 272
192 171 198 240 257 265 226 213 217 193 26 357 345 294 214 212 241 249 254 247 246 266 271 218 228 253 273 282 274 269 261 224 226 249 259 265 261 257 266 278 272 269 255 255
191 184 191 219 207 202 232 180 150 188 234 230 251 286 267 231 244 255 254 251 247 253 256 252 255 260 272 278 274 269 246 217 216 244 250 251 255 258 261 271 298 299 285 286